Meteo pe oră la Bolshie Sehnovichi

Astăzi, 6 Mai, Joi

Timp Temperatura Precipitaţii Vânt Presiune Umiditate
00:00 +6°C° 0.2 mm 4 m/s 738 mmHg 93%
01:00 +6°C° 0.2 mm 5 m/s 738 mmHg 91%
02:00 +5°C° 0 mm 7 m/s 738 mmHg 89%
03:00 +5°C° 0.3 mm 6 m/s 739 mmHg 89%
04:00 +4°C° 0.3 mm 6 m/s 739 mmHg 89%
05:00 +5°C° 0.3 mm 5 m/s 740 mmHg 89%
06:00 +4°C° 0 mm 6 m/s 740 mmHg 87%
07:00 +4°C° 0 mm 6 m/s 741 mmHg 85%
08:00 +4°C° 0 mm 7 m/s 741 mmHg 84%
09:00 +5°C° 0 mm 7 m/s 742 mmHg 73%
10:00 +6°C° 0 mm 8 m/s 742 mmHg 62%
11:00 +9°C° 0 mm 8 m/s 742 mmHg 51%
12:00 +10°C° 0 mm 8 m/s 742 mmHg 48%
13:00 +10°C° 0 mm 8 m/s 743 mmHg 44%
14:00 +11°C° 0 mm 9 m/s 743 mmHg 41%
15:00 +11°C° 0 mm 7 m/s 743 mmHg 43%
16:00 +11°C° 0 mm 6 m/s 743 mmHg 45%
17:00 +12°C° 0 mm 5 m/s 743 mmHg 47%
18:00 +10°C° 0 mm 5 m/s 743 mmHg 52%
19:00 +10°C° 0 mm 4 m/s 743 mmHg 56%
20:00 +8°C° 0 mm 4 m/s 743 mmHg 61%
21:00 +7°C° 0 mm 4 m/s 743 mmHg 68%
22:00 +6°C° 0 mm 4 m/s 743 mmHg 75%
23:00 +5°C° 0 mm 4 m/s 743 mmHg 82%

Mâine, 7 Mai, Vineri

Timp Temperatura Precipitaţii Vânt Presiune Umiditate
00:00 +5°C° 0 mm 4 m/s 743 mmHg 84%
01:00 +5°C° 0 mm 3 m/s 743 mmHg 87%
02:00 +4°C° 0 mm 3 m/s 743 mmHg 89%
03:00 +5°C° 0.1 mm 3 m/s 742 mmHg 90%
04:00 +6°C° 0.1 mm 2 m/s 742 mmHg 91%
05:00 +6°C° 0.1 mm 2 m/s 742 mmHg 92%
06:00 +6°C° 0.3 mm 2 m/s 742 mmHg 92%
07:00 +7°C° 0.3 mm 3 m/s 741 mmHg 92%
08:00 +7°C° 0.3 mm 3 m/s 741 mmHg 92%
09:00 +6°C° 0.3 mm 4 m/s 741 mmHg 92%
10:00 +6°C° 0.3 mm 4 m/s 740 mmHg 92%
11:00 +6°C° 0.3 mm 4 m/s 740 mmHg 93%
12:00 +7°C° 0.1 mm 5 m/s 739 mmHg 91%
13:00 +8°C° 0.1 mm 5 m/s 739 mmHg 89%
14:00 +8°C° 0.1 mm 5 m/s 739 mmHg 88%
15:00 +9°C° 0.1 mm 5 m/s 739 mmHg 86%
16:00 +10°C° 0.1 mm 4 m/s 739 mmHg 85%
17:00 +11°C° 0.1 mm 4 m/s 738 mmHg 83%
18:00 +10°C° 0.3 mm 4 m/s 739 mmHg 86%
19:00 +8°C° 0.3 mm 4 m/s 739 mmHg 88%
20:00 +7°C° 0.3 mm 4 m/s 739 mmHg 91%
21:00 +6°C° 0.1 mm 4 m/s 740 mmHg 92%
22:00 +5°C° 0.1 mm 5 m/s 740 mmHg 93%
23:00 +3°C° 0.1 mm 6 m/s 740 mmHg 94%

Poimâine, 8 Mai, Sâmbătă

Timp Temperatura Precipitaţii Vânt Presiune Umiditate
00:00 +3°C° 0.6 mm 6 m/s 741 mmHg 94%
01:00 +2°C° 0.6 mm 6 m/s 742 mmHg 95%
02:00 +1°C° 0.6 mm 6 m/s 743 mmHg 96%
03:00 +1°C° 0.1 mm 6 m/s 744 mmHg 95%
04:00 +1°C° 0.1 mm 6 m/s 744 mmHg 93%
05:00 +1°C° 0.1 mm 6 m/s 745 mmHg 92%
06:00 +1°C° 0 mm 6 m/s 745 mmHg 89%
07:00 +2°C° 0 mm 6 m/s 746 mmHg 87%
08:00 +2°C° 0 mm 6 m/s 747 mmHg 84%
09:00 +3°C° 0 mm 6 m/s 747 mmHg 79%
10:00 +4°C° 0 mm 6 m/s 748 mmHg 73%
11:00 +5°C° 0 mm 6 m/s 748 mmHg 68%
12:00 +7°C° 0 mm 6 m/s 749 mmHg 64%
13:00 +8°C° 0 mm 6 m/s 749 mmHg 59%
14:00 +9°C° 0 mm 6 m/s 749 mmHg 55%
15:00 +9°C° 0.2 mm 6 m/s 749 mmHg 59%
16:00 +9°C° 0.2 mm 6 m/s 749 mmHg 62%
17:00 +8°C° 0.2 mm 6 m/s 749 mmHg 66%
18:00 +7°C° 0.1 mm 5 m/s 750 mmHg 72%
19:00 +6°C° 0.1 mm 4 m/s 750 mmHg 78%
20:00 +5°C° 0.1 mm 3 m/s 750 mmHg 84%
21:00 +4°C° 0 mm 3 m/s 751 mmHg 86%
22:00 +3°C° 0 mm 3 m/s 751 mmHg 89%
23:00 +3°C° 0 mm 3 m/s 751 mmHg 91%

9 Mai, Duminică

Timp Temperatura Precipitaţii Vânt Presiune Umiditate
00:00 +2°C° 0 mm 3 m/s 752 mmHg 92%
01:00 +3°C° 0 mm 2 m/s 752 mmHg 93%
02:00 +3°C° 0 mm 2 m/s 752 mmHg 94%
03:00 +2°C° 0 mm 2 m/s 753 mmHg 94%
04:00 +2°C° 0 mm 2 m/s 753 mmHg 94%
05:00 +2°C° 0 mm 2 m/s 753 mmHg 94%
06:00 +4°C° 0 mm 2 m/s 753 mmHg 86%
07:00 +6°C° 0 mm 2 m/s 754 mmHg 79%
08:00 +7°C° 0 mm 2 m/s 754 mmHg 72%
09:00 +9°C° 0 mm 2 m/s 754 mmHg 64%
10:00 +11°C° 0 mm 3 m/s 754 mmHg 57%
11:00 +12°C° 0 mm 3 m/s 754 mmHg 50%
12:00 +13°C° 0 mm 3 m/s 754 mmHg 48%
13:00 +14°C° 0 mm 4 m/s 753 mmHg 46%
14:00 +15°C° 0 mm 4 m/s 753 mmHg 44%
15:00 +15°C° 0 mm 4 m/s 753 mmHg 47%
16:00 +17°C° 0 mm 4 m/s 753 mmHg 49%
17:00 +17°C° 0 mm 4 m/s 752 mmHg 52%
18:00 +14°C° 0 mm 4 m/s 753 mmHg 58%
19:00 +12°C° 0 mm 3 m/s 753 mmHg 65%
20:00 +11°C° 0 mm 3 m/s 753 mmHg 71%
21:00 +10°C° 0 mm 3 m/s 753 mmHg 73%
22:00 +10°C° 0 mm 4 m/s 753 mmHg 74%
23:00 +8°C° 0 mm 4 m/s 753 mmHg 75%

10 Mai, Luni

Timp Temperatura Precipitaţii Vânt Presiune Umiditate
00:00 +8°C° 0 mm 4 m/s 753 mmHg 77%
01:00 +7°C° 0 mm 4 m/s 753 mmHg 80%
02:00 +7°C° 0 mm 4 m/s 753 mmHg 82%
03:00 +6°C° 0 mm 4 m/s 753 mmHg 81%
04:00 +6°C° 0 mm 4 m/s 753 mmHg 79%
05:00 +6°C° 0 mm 4 m/s 753 mmHg 78%
06:00 +8°C° 0 mm 5 m/s 753 mmHg 73%
07:00 +9°C° 0 mm 5 m/s 753 mmHg 69%
08:00 +11°C° 0 mm 6 m/s 754 mmHg 64%
09:00 +14°C° 0 mm 7 m/s 753 mmHg 60%
10:00 +15°C° 0 mm 7 m/s 753 mmHg 56%
11:00 +17°C° 0 mm 8 m/s 753 mmHg 52%
12:00 +18°C° 0 mm 8 m/s 753 mmHg 51%
13:00 +20°C° 0 mm 8 m/s 753 mmHg 50%
14:00 +21°C° 0 mm 8 m/s 753 mmHg 50%
15:00 +20°C° 0 mm 8 m/s 752 mmHg 53%
16:00 +20°C° 0 mm 7 m/s 752 mmHg 55%
17:00 +20°C° 0 mm 7 m/s 752 mmHg 58%
18:00 +18°C° 0 mm 7 m/s 752 mmHg 62%
19:00 +16°C° 0 mm 6 m/s 752 mmHg 65%
20:00 +15°C° 0 mm 6 m/s 752 mmHg 68%
21:00 +14°C° 0 mm 6 m/s 752 mmHg 70%
22:00 +13°C° 0 mm 5 m/s 752 mmHg 72%
23:00 +12°C° 0 mm 5 m/s 752 mmHg 74%

11 Mai, Marţi

Timp Temperatura Precipitaţii Vânt Presiune Umiditate
00:00 +11°C° 0 mm 6 m/s 752 mmHg 74%
01:00 +10°C° 0 mm 6 m/s 752 mmHg 75%
02:00 +10°C° 0 mm 6 m/s 752 mmHg 75%
03:00 +9°C° 0 mm 6 m/s 752 mmHg 75%
04:00 +9°C° 0 mm 6 m/s 752 mmHg 75%
05:00 +9°C° 0 mm 6 m/s 752 mmHg 75%
06:00 +10°C° 0 mm 7 m/s 752 mmHg 72%
07:00 +11°C° 0 mm 7 m/s 752 mmHg 70%
08:00 +12°C° 0 mm 7 m/s 752 mmHg 68%
09:00 +15°C° 0 mm 8 m/s 752 mmHg 62%
10:00 +16°C° 0 mm 8 m/s 752 mmHg 57%
11:00 +18°C° 0 mm 8 m/s 752 mmHg 52%
12:00 +18°C° 0 mm 8 m/s 752 mmHg 50%
13:00 +20°C° 0 mm 8 m/s 752 mmHg 49%
14:00 +21°C° 0 mm 8 m/s 752 mmHg 47%
15:00 +21°C° 0 mm 7 m/s 751 mmHg 49%
16:00 +20°C° 0 mm 7 m/s 751 mmHg 51%
17:00 +20°C° 0 mm 7 m/s 751 mmHg 53%
18:00 +17°C° 0 mm 6 m/s 751 mmHg 57%
19:00 +16°C° 0 mm 5 m/s 751 mmHg 61%
20:00 +14°C° 0 mm 5 m/s 751 mmHg 65%
21:00 +14°C° 0 mm 5 m/s 751 mmHg 69%
22:00 +14°C° 0 mm 5 m/s 751 mmHg 73%
23:00 +13°C° 0 mm 6 m/s 751 mmHg 77%
Arată mai mult

Formular de consimțământ

Meteoprog și furnizorii noștri de servicii pot stoca și accesa date personale, precum cookies, identificatori de dispozitiv sau alte tehnologii similare pe dispozitivul dumneavoastră și procesa astfel de date pentru a personaliza conținutul și reclamele, dar și pentru a oferi caracteristici de social media și pentru a analiza traficul.

  • Stocarea și/sau accesarea informațiilor pe dispozitivul dumneavoastră

    Cookies, identificatori de dispozitiv sau alte informații pot fi stocate sau accesate pe dispozitiv în scopurile indicate mai sus.

  • Reclame și conținut personalizat, evaluarea reclamelor și a conținutului, informații despre audiențe și dezvoltarea produselor

    Reclamele și conținutul pot fi personalizate pe baza unui profil. Pot fi adăugate date suplimentare pentru a personaliza mai bine reclamele și conținutul. Performanța reclamelor și conținutului poate fi măsurată. Pot fi obținute informații despre utilizatorii care au văzut reclamele și conținutul. Aceste date pot fi utilizate pentru a dezvolta sau îmbunătăți experiența utilizatorilor, sistemele și software-ul.

Dând clic pe ‘Sunt de acord’, permiteți utilizarea cookie-urilor menționate, a identificatorilor de dispozitiv, balizelor web sau altor tehnologii similare. Setările pot fi modificate din browser-ul dispozitivului dumneavoastră.

În anumite scopuri, interesele legitime pot prima asupra consimțământului. Puteți citi mai multe informații în acest sens în Politica privind Confidențialitatea Datelor și Cookie.